TimeEDT,TemperatureF,Dew PointF,Humidity,Sea Level PressureIn,VisibilityMPH,Wind Direction,Wind SpeedMPH,Gust SpeedMPH,PrecipitationIn,Events,Conditions,WindDirDegrees,DateUTC
12:15 AM,66.2,41.0,40,29.90,10.0,NW,6.9,-,N/A,,Clear,320,2013-05-17 04:15:00
12:35 AM,66.2,41.0,40,29.90,10.0,NW,4.6,-,N/A,,Clear,310,2013-05-17 04:35:00
12:55 AM,66.2,41.0,40,29.91,10.0,NW,6.9,-,N/A,,Clear,320,2013-05-17 04:55:00
1:15 AM,66.2,41.0,40,29.91,10.0,NW,6.9,-,N/A,,Clear,310,2013-05-17 05:15:00
1:35 AM,66.2,41.0,40,29.92,10.0,NW,8.1,-,N/A,,Clear,320,2013-05-17 05:35:00
1:55 AM,66.2,41.0,40,29.93,10.0,WNW,6.9,-,N/A,,Clear,300,2013-05-17 05:55:00
2:15 AM,64.4,41.0,42,29.93,10.0,WSW,3.5,-,N/A,,Clear,250,2013-05-17 06:15:00
2:35 AM,62.6,39.2,42,29.93,10.0,Calm,Calm,-,N/A,,Clear,0,2013-05-17 06:35:00
2:55 AM,60.8,39.2,45,29.94,10.0,WNW,5.8,-,N/A,,Clear,300,2013-05-17 06:55:00
3:15 AM,60.8,39.2,45,29.95,10.0,North,4.6,-,N/A,,Clear,350,2013-05-17 07:15:00
3:35 AM,59.0,39.2,48,29.96,10.0,Calm,Calm,-,N/A,,Clear,0,2013-05-17 07:35:00
3:55 AM,53.6,42.8,67,29.97,10.0,Calm,Calm,-,N/A,,Clear,0,2013-05-17 07:55:00
4:15 AM,53.6,41.0,62,29.97,10.0,Calm,Calm,-,N/A,,Clear,0,2013-05-17 08:15:00
4:35 AM,50.0,41.0,71,29.99,10.0,North,4.6,-,N/A,,Clear,10,2013-05-17 08:35:00
4:55 AM,55.4,39.2,54,30.00,10.0,NW,8.1,-,N/A,,Clear,310,2013-05-17 08:55:00
5:15 AM,57.2,39.2,51,30.01,10.0,North,6.9,-,N/A,,Clear,360,2013-05-17 09:15:00
5:35 AM,55.4,39.2,54,30.01,10.0,NW,4.6,-,N/A,,Clear,320,2013-05-17 09:35:00
5:55 AM,55.4,39.2,54,30.03,10.0,WNW,4.6,-,N/A,,Clear,290,2013-05-17 09:55:00
6:15 AM,55.4,39.2,54,30.04,10.0,WNW,4.6,-,N/A,,Clear,290,2013-05-17 10:15:00
6:35 AM,55.4,41.0,58,30.05,10.0,NW,5.8,-,N/A,,Clear,320,2013-05-17 10:35:00
6:55 AM,55.4,41.0,58,30.06,10.0,WNW,5.8,-,N/A,,Clear,300,2013-05-17 10:55:00
7:15 AM,57.2,41.0,55,30.08,10.0,WSW,4.6,-,N/A,,Clear,250,2013-05-17 11:15:00
7:35 AM,57.2,41.0,55,30.08,10.0,WNW,6.9,-,N/A,,Clear,290,2013-05-17 11:35:00
8:15 AM,57.2,41.0,55,30.10,10.0,NW,9.2,-,N/A,,Clear,310,2013-05-17 12:15:00
8:35 AM,57.2,41.0,55,30.10,10.0,NNW,6.9,-,N/A,,Clear,330,2013-05-17 12:35:00
8:55 AM,57.2,41.0,55,30.11,10.0,NW,5.8,-,N/A,,Clear,320,2013-05-17 12:55:00
9:15 AM,57.2,41.0,55,30.11,10.0,North,10.4,-,N/A,,Clear,350,2013-05-17 13:15:00
9:35 AM,59.0,41.0,51,30.11,10.0,NNW,8.1,-,N/A,,Clear,330,2013-05-17 13:35:00
9:55 AM,59.0,41.0,51,30.12,10.0,NW,4.6,-,N/A,,Clear,310,2013-05-17 13:55:00
10:15 AM,59.0,41.0,51,30.12,10.0,NW,8.1,-,N/A,,Clear,320,2013-05-17 14:15:00
10:35 AM,60.8,41.0,48,30.12,10.0,NNW,9.2,-,N/A,,Clear,330,2013-05-17 14:35:00
10:55 AM,62.6,41.0,45,30.13,10.0,NW,8.1,-,N/A,,Clear,310,2013-05-17 14:55:00
11:15 AM,62.6,42.8,48,30.13,10.0,NNE,5.8,-,N/A,,Clear,20,2013-05-17 15:15:00
11:35 AM,62.6,41.0,45,30.13,10.0,North,5.8,-,N/A,,Clear,350,2013-05-17 15:35:00
11:55 AM,64.4,44.6,49,30.13,10.0,North,8.1,-,N/A,,Clear,350,2013-05-17 15:55:00
12:15 PM,64.4,42.8,45,30.13,10.0,WSW,6.9,-,N/A,,Clear,250,2013-05-17 16:15:00
12:35 PM,66.2,42.8,43,30.13,10.0,West,5.8,-,N/A,,Clear,280,2013-05-17 16:35:00
12:55 PM,66.2,41.0,40,30.13,10.0,WNW,9.2,-,N/A,,Clear,290,2013-05-17 16:55:00
1:15 PM,66.2,42.8,43,30.13,10.0,West,4.6,-,N/A,,Clear,270,2013-05-17 17:15:00
1:35 PM,68.0,42.8,40,30.13,10.0,NNW,5.8,-,N/A,,Clear,340,2013-05-17 17:35:00
1:55 PM,68.0,41.0,37,30.12,10.0,NW,4.6,-,N/A,,Clear,320,2013-05-17 17:55:00
2:15 PM,68.0,41.0,37,30.12,10.0,NNW,8.1,-,N/A,,Clear,330,2013-05-17 18:15:00
2:35 PM,69.8,41.0,35,30.12,10.0,NW,4.6,-,N/A,,Clear,310,2013-05-17 18:35:00
3:15 PM,69.8,39.2,33,30.12,10.0,North,6.9,-,N/A,,Clear,350,2013-05-17 19:15:00
3:35 PM,71.6,41.0,33,30.11,10.0,North,8.1,-,N/A,,Clear,350,2013-05-17 19:35:00
3:55 PM,71.6,41.0,33,30.11,10.0,NNE,6.9,-,N/A,,Clear,20,2013-05-17 19:55:00
4:15 PM,71.6,39.2,31,30.11,10.0,NNE,3.5,-,N/A,,Clear,30,2013-05-17 20:15:00
4:35 PM,71.6,39.2,31,30.11,10.0,NW,8.1,-,N/A,,Clear,310,2013-05-17 20:35:00
4:55 PM,71.6,39.2,31,30.11,10.0,NW,6.9,-,N/A,,Clear,320,2013-05-17 20:55:00
5:15 PM,71.6,41.0,33,30.11,10.0,NNE,5.8,-,N/A,,Clear,20,2013-05-17 21:15:00
5:35 PM,71.6,39.2,31,30.12,10.0,North,8.1,-,N/A,,Clear,350,2013-05-17 21:35:00
5:55 PM,71.6,39.2,31,30.12,10.0,NNW,6.9,-,N/A,,Clear,340,2013-05-17 21:55:00
6:15 PM,71.6,39.2,31,30.12,10.0,NW,5.8,-,N/A,,Clear,320,2013-05-17 22:15:00
6:35 PM,71.6,37.4,29,30.12,10.0,NW,4.6,-,N/A,,Clear,310,2013-05-17 22:35:00
6:55 PM,71.6,37.4,29,30.13,10.0,North,4.6,-,N/A,,Clear,350,2013-05-17 22:55:00
7:15 PM,69.8,37.4,31,30.13,10.0,North,4.6,-,N/A,,Clear,350,2013-05-17 23:15:00
7:35 PM,69.8,39.2,33,30.13,10.0,NNW,3.5,-,N/A,,Clear,340,2013-05-17 23:35:00
7:55 PM,66.2,39.2,37,30.14,10.0,Calm,Calm,-,N/A,,Clear,0,2013-05-17 23:55:00
8:15 PM,62.6,41.0,45,30.15,10.0,Calm,Calm,-,N/A,,Clear,0,2013-05-18 00:15:00
8:35 PM,59.0,44.6,59,30.15,10.0,Calm,Calm,-,N/A,,Clear,0,2013-05-18 00:35:00
8:55 PM,59.0,44.6,59,30.16,10.0,Calm,Calm,-,N/A,,Clear,0,2013-05-18 00:55:00
9:15 PM,57.2,44.6,63,30.17,10.0,Calm,Calm,-,N/A,,Clear,0,2013-05-18 01:15:00
9:35 PM,55.4,44.6,67,30.18,10.0,Calm,Calm,-,N/A,,Clear,0,2013-05-18 01:35:00
9:55 PM,55.4,44.6,67,30.19,10.0,Calm,Calm,-,N/A,,Clear,0,2013-05-18 01:55:00
10:15 PM,53.6,44.6,72,30.19,10.0,Calm,Calm,-,N/A,,Clear,0,2013-05-18 02:15:00
10:35 PM,53.6,46.4,77,30.19,10.0,Calm,Calm,-,N/A,,Clear,0,2013-05-18 02:35:00
10:55 PM,53.6,44.6,72,30.19,10.0,Calm,Calm,-,N/A,,Clear,0,2013-05-18 02:55:00
11:15 PM,51.8,46.4,82,30.19,10.0,Calm,Calm,-,N/A,,Clear,0,2013-05-18 03:15:00
11:35 PM,51.8,46.4,82,30.20,10.0,Calm,Calm,-,N/A,,Clear,0,2013-05-18 03:35:00
11:55 PM,50.0,46.4,87,30.21,10.0,Calm,Calm,-,N/A,,Clear,0,2013-05-18 03:55:00